CW3577 Weather Reports


time (UTC)temp
C
wind
direction
speed
KPH
gust
KPH
rain 1hr
cm
rain 24hr
cm
rain mn
cm
humidity
%
barometer
mb
20260504223054 21 212 4.8 22.5 0.00 0.00 0.00 32 1006.5
20260504221511 21 236 9.7 20.9 0.00 0.00 0.00 31 1006.5
20260504220042 22 243 4.8 19.3 0.00 0.00 0.00 31 1006.5
20260504214613 22 244 9.7 22.5 0.00 0.00 0.00 29 1006.7
20260504213028 21 193 6.4 24.1 0.00 0.00 0.00 31 1006.7
20260504211551 22 192 8.0 27.4 0.00 0.00 0.00 30 1006.7
20260504210011 22 208 11.3 22.5 0.00 0.00 0.00 29 1006.6
20260504204529 22 232 8.0 22.5 0.00 0.00 0.00 31 1006.6
20260504203053 22 217 9.7 24.1 0.00 0.00 0.00 30 1006.7
20260504201511 22 188 4.8 16.1 0.00 0.00 0.00 30 1006.6
20260504200037 21 225 8.0 38.6 0.00 0.00 0.00 29 1006.6
20260504194611 22 205 9.7 32.2 0.00 0.00 0.00 29 1006.7
20260504194501 22 244 9.7 32.2 0.00 0.00 0.00 28 1006.7
20260504193025 22 292 4.8 33.8 0.00 0.00 0.00 29 1006.7
20260504191548 22 232 6.4 24.1 0.00 0.00 0.00 29 1006.7
20260504190005 22 280 11.3 41.8 0.00 0.00 0.00 30 1007.0
20260504184534 22 157 12.9 29.0 0.00 0.00 0.00 28 1007.2
20260504183045 21 238 8.0 30.6 0.00 0.00 0.00 28 1007.5
20260504181517 21 207 14.5 32.2 0.00 0.00 0.00 30 1007.4
20260504180031 21 260 9.7 45.1 0.00 0.00 0.00 28 1007.5
20260504174545 21 249 12.9 38.6 0.00 0.00 0.00 30 1007.5
20260504173005 21 213 12.9 24.1 0.00 0.00 0.00 28 1007.7
20260504171533 21 240 11.3 25.7 0.00 0.00 0.00 29 1007.8
20260504120109 12 225 4.8 22.5 0.00 0.03 0.00 49 1010.9
20260504081534 5 360 0.0 3.2 0.00 0.03 0.00 78 1010.9
20260504050021 1 288 0.0 3.2 0.00 0.03 0.00 85 1010.9
20260504044550 1 288 0.0 3.2 0.00 0.03 0.00 83 1010.9
20260504043008 1 288 0.0 1.6 0.00 0.03 0.00 83 1010.9
20260504041529 1 288 0.0 3.2 0.00 0.03 0.00 82 1010.9
20260504040050 1 288 0.0 3.2 0.00 0.03 0.03 82 1010.7
20260504034525 1 288 0.0 1.6 0.00 0.03 0.03 81 1010.6
20260504033046 1 288 0.0 1.6 0.00 0.03 0.03 79 1010.6
20260504031604 2 288 0.0 1.6 0.00 0.03 0.03 78 1010.5
20260504030023 2 288 0.0 1.6 0.00 0.03 0.03 77 1010.5
20260504024556 2 288 0.0 3.2 0.00 0.03 0.03 76 1010.4
20260504023005 2 288 0.0 0.0 0.00 0.03 0.03 75 1010.4
20260504021531 3 288 0.0 1.6 0.00 0.03 0.03 73 1010.3
20260504020051 3 288 0.0 1.6 0.00 0.03 0.03 71 1010.3
20260504014520 3 288 0.0 0.0 0.00 0.03 0.03 68 1010.1
20260504013047 4 288 0.0 1.6 0.00 0.03 0.03 66 1010.0
20260504011510 5 360 0.0 1.6 0.00 0.03 0.03 64 1009.9
20260504010029 6 360 0.0 1.6 0.00 0.03 0.03 61 1009.7
20260504004603 7 288 0.0 1.6 0.00 0.03 0.03 57 1009.5
20260504003021 7 360 0.0 1.6 0.00 0.03 0.03 53 1009.3
20260504001543 8 286 0.0 3.2 0.00 0.03 0.03 46 1009.1
20260504000007 9 294 0.0 14.5 0.00 0.03 0.03 44 1009.0
20260503234525 10 273 8.0 16.1 0.00 0.03 0.03 43 1008.8
20260503233051 10 318 6.4 16.1 0.00 0.03 0.03 42 1008.7
20260503231513 10 280 11.3 19.3 0.00 0.03 0.03 41 1008.6
20260503230036 10 282 4.8 29.0 0.00 0.03 0.03 40 1008.5
20260503224551 11 300 12.9 29.0 0.00 0.03 0.03 39 1008.2